| time (UTC) | temp F | wind direction | speed MPH | gust MPH | rain 1hr in | rain 24hr in | rain mn in | humidity % | barometer mb |
| 20260508150014 | 53 | 238 | 2.0 | 8.0 | 0.00 | 0.00 | 0.00 | 63 | 1011.9 |
| 20260508145502 | 53 | 281 | 3.0 | 8.0 | 0.00 | 0.00 | 0.00 | 63 | 1011.9 |
| 20260508145001 | 53 | 238 | 2.0 | 7.0 | 0.00 | 0.00 | 0.00 | 66 | 1011.9 |
| 20260508144515 | 53 | 271 | 2.0 | 7.0 | 0.00 | 0.00 | 0.00 | 64 | 1011.9 |
| 20260508144005 | 52 | 248 | 2.0 | 7.0 | 0.00 | 0.00 | 0.00 | 63 | 1011.9 |
| 20260508143507 | 52 | 247 | 2.0 | 7.0 | 0.00 | 0.00 | 0.00 | 64 | 1011.9 |
| 20260508143016 | 52 | 300 | 3.0 | 7.0 | 0.00 | 0.00 | 0.00 | 64 | 1011.8 |
| 20260508142506 | 52 | 238 | 2.0 | 7.0 | 0.00 | 0.00 | 0.00 | 65 | 1011.8 |
| 20260508142007 | 52 | 265 | 3.0 | 7.0 | 0.00 | 0.00 | 0.00 | 65 | 1011.8 |
| 20260508141535 | 52 | 284 | 2.0 | 7.0 | 0.00 | 0.00 | 0.00 | 66 | 1012.0 |
| 20260508141010 | 52 | 279 | 4.0 | 7.0 | 0.00 | 0.00 | 0.00 | 65 | 1012.0 |
| 20260508140516 | 52 | 219 | 2.0 | 6.0 | 0.00 | 0.00 | 0.00 | 66 | 1012.0 |
| 20260508140028 | 52 | 267 | 1.0 | 6.0 | 0.00 | 0.00 | 0.00 | 66 | 1012.0 |
| 20260508135506 | 52 | 302 | 2.0 | 6.0 | 0.00 | 0.00 | 0.00 | 65 | 1012.0 |
| 20260508135003 | 51 | 253 | 3.0 | 6.0 | 0.00 | 0.00 | 0.00 | 65 | 1012.0 |
| 20260508134517 | 51 | 246 | 3.0 | 8.0 | 0.00 | 0.00 | 0.00 | 65 | 1012.1 |
| 20260508134005 | 52 | 276 | 3.0 | 8.0 | 0.00 | 0.00 | 0.00 | 64 | 1012.1 |
| 20260508133507 | 52 | 224 | 3.0 | 8.0 | 0.00 | 0.00 | 0.00 | 65 | 1012.0 |
| 20260508133015 | 52 | 244 | 2.0 | 6.0 | 0.00 | 0.00 | 0.00 | 65 | 1011.9 |
| 20260508132511 | 52 | 276 | 3.0 | 6.0 | 0.00 | 0.00 | 0.00 | 65 | 1011.9 |
| 20260508132007 | 52 | 274 | 2.0 | 6.0 | 0.00 | 0.00 | 0.00 | 66 | 1011.9 |
| 20260508131522 | 52 | 287 | 3.0 | 6.0 | 0.00 | 0.00 | 0.00 | 64 | 1011.9 |
| 20260508131007 | 52 | 224 | 3.0 | 6.0 | 0.00 | 0.00 | 0.00 | 64 | 1011.8 |
| 20260508130507 | 51 | 264 | 1.0 | 9.0 | 0.00 | 0.00 | 0.00 | 66 | 1011.8 |
| 20260508130023 | 51 | 212 | 3.0 | 9.0 | 0.00 | 0.00 | 0.00 | 66 | 1011.9 |
| 20260508125510 | 51 | 239 | 5.0 | 10.0 | 0.00 | 0.00 | 0.00 | 65 | 1012.0 |
| 20260508125014 | 51 | 269 | 3.0 | 10.0 | 0.00 | 0.00 | 0.00 | 65 | 1011.9 |
| 20260508124531 | 51 | 255 | 4.0 | 9.0 | 0.00 | 0.00 | 0.00 | 65 | 1011.9 |
| 20260508124010 | 51 | 322 | 3.0 | 7.0 | 0.00 | 0.00 | 0.00 | 66 | 1011.8 |
| 20260508123511 | 50 | 307 | 3.0 | 8.0 | 0.00 | 0.00 | 0.00 | 67 | 1011.8 |
| 20260508123014 | 50 | 285 | 2.0 | 8.0 | 0.00 | 0.00 | 0.00 | 67 | 1011.8 |
| 20260508122503 | 49 | 277 | 2.0 | 7.0 | 0.00 | 0.00 | 0.00 | 68 | 1011.8 |
| 20260508122005 | 49 | 225 | 2.0 | 7.0 | 0.00 | 0.00 | 0.00 | 69 | 1011.8 |
| 20260508121516 | 48 | 230 | 3.0 | 7.0 | 0.00 | 0.00 | 0.00 | 69 | 1011.7 |
| 20260508121005 | 48 | 238 | 2.0 | 4.0 | 0.00 | 0.00 | 0.00 | 70 | 1011.6 |
| 20260508120506 | 48 | 217 | 2.0 | 5.0 | 0.00 | 0.00 | 0.00 | 70 | 1011.6 |
| 20260508120022 | 48 | 269 | 2.0 | 5.0 | 0.00 | 0.00 | 0.00 | 70 | 1011.7 |
| 20260508115507 | 48 | 274 | 2.0 | 5.0 | 0.00 | 0.00 | 0.00 | 71 | 1011.7 |
| 20260508115006 | 48 | 273 | 1.0 | 5.0 | 0.00 | 0.00 | 0.00 | 71 | 1011.7 |
| 20260508114524 | 47 | 257 | 2.0 | 5.0 | 0.00 | 0.00 | 0.00 | 70 | 1011.7 |
| 20260508114007 | 47 | 250 | 2.0 | 5.0 | 0.00 | 0.00 | 0.00 | 71 | 1011.6 |
| 20260508113510 | 47 | 252 | 0.0 | 3.0 | 0.00 | 0.00 | 0.00 | 72 | 1011.5 |
| 20260508113039 | 47 | 236 | 1.0 | 3.0 | 0.00 | 0.00 | 0.00 | 72 | 1011.5 |
| 20260508112510 | 46 | 272 | 1.0 | 3.0 | 0.00 | 0.00 | 0.00 | 73 | 1011.4 |
| 20260508112009 | 46 | 283 | 1.0 | 4.0 | 0.00 | 0.00 | 0.00 | 74 | 1011.5 |
| 20260508111528 | 45 | 225 | 1.0 | 4.0 | 0.00 | 0.00 | 0.00 | 75 | 1011.5 |
| 20260508111011 | 44 | 251 | 0.0 | 3.0 | 0.00 | 0.00 | 0.00 | 77 | 1011.6 |
| 20260508110504 | 44 | 233 | 0.0 | 2.0 | 0.00 | 0.00 | 0.00 | 79 | 1011.5 |
| 20260508110018 | 43 | 278 | 0.0 | 0.0 | 0.00 | 0.00 | 0.00 | 80 | 1011.4 |
| 20260508105505 | 42 | 278 | 0.0 | 1.0 | 0.00 | 0.00 | 0.00 | 81 | 1011.4 |
| 20260508105010 | 42 | 278 | 0.0 | 2.0 | 0.00 | 0.00 | 0.00 | 81 | 1011.3 |
| 20260508104522 | 42 | 279 | 0.0 | 2.0 | 0.00 | 0.00 | 0.00 | 82 | 1011.3 |
| 20260508104008 | 42 | 283 | 0.0 | 2.0 | 0.00 | 0.00 | 0.00 | 83 | 1011.2 |
| 20260508103508 | 41 | 272 | 0.0 | 1.0 | 0.00 | 0.00 | 0.00 | 84 | 1011.2 |
| 20260508103032 | 41 | 288 | 0.0 | 1.0 | 0.00 | 0.00 | 0.00 | 85 | 1011.1 |
| 20260508102504 | 41 | 246 | 0.0 | 1.0 | 0.00 | 0.00 | 0.00 | 86 | 1011.0 |
| 20260508102005 | 41 | 246 | 0.0 | 1.0 | 0.00 | 0.00 | 0.00 | 86 | 1011.0 |
| 20260508101518 | 40 | 240 | 0.0 | 0.0 | 0.00 | 0.00 | 0.00 | 88 | 1010.9 |
| 20260508101006 | 40 | 240 | 0.0 | 0.0 | 0.00 | 0.00 | 0.00 | 89 | 1010.9 |
| 20260508100503 | 40 | 240 | 0.0 | 0.0 | 0.00 | 0.00 | 0.00 | 90 | 1010.9 |
| 20260508100016 | 40 | 240 | 0.0 | 0.0 | 0.00 | 0.00 | 0.00 | 90 | 1010.9 |
| 20260508095505 | 40 | 240 | 0.0 | 0.0 | 0.00 | 0.00 | 0.00 | 90 | 1010.9 |
| 20260508095005 | 40 | 240 | 0.0 | 1.0 | 0.00 | 0.00 | 0.00 | 90 | 1010.9 |
| 20260508094518 | 40 | 240 | 0.0 | 1.0 | 0.00 | 0.00 | 0.00 | 90 | 1010.9 |
| 20260508094007 | 40 | 134 | 0.0 | 0.0 | 0.00 | 0.00 | 0.00 | 90 | 1011.0 |
| 20260508093509 | 40 | 134 | 0.0 | 0.0 | 0.00 | 0.00 | 0.00 | 90 | 1010.9 |
| 20260508093026 | 40 | 134 | 0.0 | 0.0 | 0.00 | 0.00 | 0.00 | 91 | 1011.0 |
| 20260508092503 | 40 | 134 | 0.0 | 0.0 | 0.00 | 0.00 | 0.00 | 91 | 1011.0 |
| 20260508092003 | 40 | 134 | 0.0 | 0.0 | 0.00 | 0.00 | 0.00 | 91 | 1011.1 |
| 20260508091507 | 40 | 134 | 0.0 | 0.0 | 0.00 | 0.00 | 0.00 | 91 | 1011.2 |
| 20260508091005 | 40 | 134 | 0.0 | 0.0 | 0.00 | 0.00 | 0.00 | 91 | 1011.2 |
| 20260508090504 | 40 | 134 | 0.0 | 0.0 | 0.00 | 0.00 | 0.00 | 91 | 1011.3 |
| 20260508090021 | 40 | 134 | 0.0 | 0.0 | 0.00 | 0.00 | 0.00 | 91 | 1011.3 |
| 20260508085504 | 40 | 134 | 0.0 | 0.0 | 0.00 | 0.00 | 0.00 | 90 | 1011.3 |
| 20260508085003 | 41 | 134 | 0.0 | 0.0 | 0.00 | 0.00 | 0.00 | 90 | 1011.3 |
| 20260508084514 | 41 | 134 | 0.0 | 0.0 | 0.00 | 0.00 | 0.00 | 90 | 1011.3 |
| 20260508084006 | 41 | 134 | 0.0 | 0.0 | 0.00 | 0.00 | 0.00 | 90 | 1011.3 |
| 20260508083505 | 41 | 134 | 0.0 | 0.0 | 0.00 | 0.00 | 0.00 | 89 | 1011.2 |
| 20260508083022 | 41 | 134 | 0.0 | 0.0 | 0.00 | 0.00 | 0.00 | 88 | 1011.3 |
| 20260508082508 | 41 | 134 | 0.0 | 0.0 | 0.00 | 0.00 | 0.00 | 87 | 1011.2 |
| 20260508082010 | 42 | 134 | 0.0 | 0.0 | 0.00 | 0.00 | 0.00 | 86 | 1011.3 |
| 20260508081525 | 42 | 134 | 0.0 | 0.0 | 0.00 | 0.00 | 0.00 | 85 | 1011.2 |
| 20260508081008 | 43 | 134 | 0.0 | 0.0 | 0.00 | 0.00 | 0.00 | 85 | 1011.2 |
| 20260508080510 | 43 | 134 | 0.0 | 0.0 | 0.00 | 0.00 | 0.00 | 85 | 1011.2 |
| 20260508080009 | 43 | 134 | 0.0 | 0.0 | 0.00 | 0.00 | 0.00 | 84 | 1011.2 |
| 20260508075504 | 44 | 134 | 0.0 | 0.0 | 0.00 | 0.00 | 0.00 | 83 | 1011.3 |
| 20260508075005 | 44 | 134 | 0.0 | 1.0 | 0.00 | 0.00 | 0.00 | 83 | 1011.3 |
| 20260508074523 | 45 | 134 | 0.0 | 1.0 | 0.00 | 0.00 | 0.00 | 82 | 1011.4 |
| 20260508074004 | 45 | 134 | 0.0 | 0.0 | 0.00 | 0.00 | 0.00 | 82 | 1011.3 |
| 20260508073505 | 45 | 134 | 0.0 | 0.0 | 0.00 | 0.00 | 0.00 | 82 | 1011.2 |
| 20260508073017 | 45 | 134 | 0.0 | 0.0 | 0.00 | 0.00 | 0.00 | 79 | 1011.3 |
| 20260508072503 | 46 | 134 | 0.0 | 0.0 | 0.00 | 0.00 | 0.00 | 79 | 1011.3 |
| 20260508072004 | 46 | 134 | 0.0 | 0.0 | 0.00 | 0.00 | 0.00 | 80 | 1011.4 |
| 20260508071531 | 46 | 134 | 0.0 | 0.0 | 0.00 | 0.00 | 0.00 | 79 | 1011.4 |
| 20260508071004 | 47 | 134 | 0.0 | 0.0 | 0.00 | 0.00 | 0.00 | 79 | 1011.4 |
| 20260508070510 | 47 | 134 | 0.0 | 0.0 | 0.00 | 0.00 | 0.00 | 77 | 1011.5 |
| 20260508070025 | 47 | 134 | 0.0 | 0.0 | 0.00 | 0.00 | 0.00 | 77 | 1011.5 |
| 20260508065508 | 47 | 134 | 0.0 | 0.0 | 0.00 | 0.00 | 0.00 | 78 | 1011.5 |
| 20260508065007 | 47 | 134 | 0.0 | 0.0 | 0.00 | 0.00 | 0.00 | 78 | 1011.4 |
| 20260508064526 | 48 | 134 | 0.0 | 0.0 | 0.00 | 0.00 | 0.00 | 77 | 1011.5 |
| 20260508064010 | 48 | 134 | 0.0 | 0.0 | 0.00 | 0.00 | 0.00 | 75 | 1011.5 |
| 20260508063502 | 48 | 134 | 0.0 | 0.0 | 0.00 | 0.00 | 0.00 | 75 | 1011.6 |
| 20260508063014 | 48 | 247 | 0.0 | 0.0 | 0.00 | 0.00 | 0.00 | 73 | 1011.7 |
| 20260508062504 | 48 | 247 | 0.0 | 1.0 | 0.00 | 0.00 | 0.00 | 73 | 1012.0 |
| 20260508062004 | 49 | 247 | 0.0 | 4.0 | 0.00 | 0.00 | 0.00 | 71 | 1012.1 |
| 20260508061521 | 49 | 255 | 0.0 | 4.0 | 0.00 | 0.00 | 0.00 | 71 | 1012.2 |
| 20260508061005 | 49 | 283 | 1.0 | 5.0 | 0.00 | 0.00 | 0.00 | 71 | 1012.3 |
| 20260508060505 | 49 | 267 | 2.0 | 5.0 | 0.00 | 0.00 | 0.00 | 70 | 1012.4 |
| 20260508060022 | 49 | 289 | 2.0 | 6.0 | 0.00 | 0.00 | 0.00 | 70 | 1012.5 |
| 20260508055506 | 49 | 249 | 2.0 | 6.0 | 0.00 | 0.00 | 0.00 | 70 | 1012.7 |
| 20260508055007 | 49 | 299 | 1.0 | 12.0 | 0.00 | 0.00 | 0.00 | 70 | 1012.7 |
| 20260508054525 | 49 | 260 | 2.0 | 12.0 | 0.00 | 0.00 | 0.00 | 71 | 1012.7 |
| 20260508054010 | 48 | 3 | 1.0 | 3.0 | 0.00 | 0.00 | 0.00 | 74 | 1012.8 |
| 20260508053509 | 48 | 302 | 1.0 | 3.0 | 0.00 | 0.00 | 0.00 | 73 | 1012.6 |
| 20260508053028 | 48 | 310 | 1.0 | 2.0 | 0.00 | 0.00 | 0.00 | 73 | 1012.3 |
| 20260508052511 | 48 | 127 | 0.0 | 1.0 | 0.00 | 0.00 | 0.00 | 72 | 1012.0 |
| 20260508052009 | 47 | 127 | 0.0 | 0.0 | 0.00 | 0.00 | 0.00 | 72 | 1011.8 |
| 20260508051527 | 47 | 127 | 0.0 | 0.0 | 0.00 | 0.00 | 0.00 | 74 | 1011.8 |
| 20260508051006 | 47 | 127 | 0.0 | 0.0 | 0.00 | 0.00 | 0.00 | 73 | 1011.8 |
| 20260508050506 | 47 | 127 | 0.0 | 1.0 | 0.00 | 0.00 | 0.00 | 74 | 1011.8 |
| 20260508050024 | 47 | 127 | 0.0 | 1.0 | 0.00 | 0.00 | 0.00 | 75 | 1011.8 |
| 20260508045507 | 47 | 127 | 0.0 | 0.0 | 0.00 | 0.00 | 0.00 | 73 | 1011.8 |
| 20260508045006 | 47 | 127 | 0.0 | 0.0 | 0.00 | 0.00 | 0.00 | 76 | 1011.8 |
| 20260508044524 | 47 | 127 | 0.0 | 0.0 | 0.00 | 0.00 | 0.00 | 75 | 1011.9 |
| 20260508044007 | 47 | 127 | 0.0 | 0.0 | 0.00 | 0.00 | 0.00 | 76 | 1011.8 |
| 20260508043509 | 47 | 127 | 0.0 | 0.0 | 0.00 | 0.00 | 0.00 | 74 | 1011.9 |
| 20260508043025 | 47 | 127 | 0.0 | 1.0 | 0.00 | 0.00 | 0.00 | 76 | 1011.9 |
| 20260508042511 | 47 | 127 | 0.0 | 1.0 | 0.00 | 0.00 | 0.00 | 76 | 1011.9 |
| 20260508042012 | 47 | 134 | 0.0 | 0.0 | 0.00 | 0.00 | 0.00 | 79 | 1011.9 |
| 20260508041528 | 47 | 147 | 0.0 | 0.0 | 0.00 | 0.00 | 0.00 | 78 | 1011.9 |
| 20260508041010 | 47 | 147 | 0.0 | 0.0 | 0.00 | 0.00 | 0.00 | 75 | 1012.0 |
| 20260508040512 | 47 | 147 | 0.0 | 0.0 | 0.00 | 0.00 | 0.00 | 74 | 1012.0 |
| 20260508040028 | 47 | 147 | 0.0 | 0.0 | 0.00 | 0.00 | 0.00 | 75 | 1011.9 |
| 20260508035502 | 47 | 147 | 0.0 | 0.0 | 0.00 | 0.00 | 0.00 | 75 | 1011.9 |
| 20260508035002 | 47 | 147 | 0.0 | 0.0 | 0.00 | 0.00 | 0.00 | 75 | 1011.9 |
| 20260508034506 | 48 | 147 | 0.0 | 0.0 | 0.00 | 0.00 | 0.00 | 75 | 1011.9 |
| 20260508034003 | 48 | 147 | 0.0 | 0.0 | 0.00 | 0.00 | 0.00 | 75 | 1012.0 |
| 20260508033505 | 47 | 147 | 0.0 | 0.0 | 0.00 | 0.00 | 0.00 | 74 | 1012.0 |
| 20260508033004 | 47 | 147 | 0.0 | 0.0 | 0.00 | 0.00 | 0.00 | 71 | 1012.1 |
| 20260508032504 | 47 | 147 | 0.0 | 1.0 | 0.00 | 0.00 | 0.00 | 72 | 1012.1 |
| 20260508032005 | 47 | 147 | 0.0 | 1.0 | 0.00 | 0.00 | 0.00 | 73 | 1012.1 |
| 20260508031508 | 47 | 153 | 0.0 | 1.0 | 0.00 | 0.00 | 0.00 | 75 | 1012.0 |
| 20260508031003 | 47 | 154 | 0.0 | 0.0 | 0.00 | 0.00 | 0.00 | 73 | 1012.1 |
| 20260508030503 | 47 | 154 | 0.0 | 0.0 | 0.00 | 0.00 | 0.00 | 72 | 1012.2 |
| 20260508030008 | 47 | 154 | 0.0 | 0.0 | 0.00 | 0.00 | 0.00 | 71 | 1012.1 |
| 20260508025503 | 47 | 153 | 0.0 | 0.0 | 0.00 | 0.00 | 0.00 | 70 | 1012.0 |
| 20260508025005 | 47 | 154 | 0.0 | 0.0 | 0.00 | 0.00 | 0.00 | 75 | 1012.1 |
| 20260508024509 | 47 | 154 | 0.0 | 0.0 | 0.00 | 0.00 | 0.00 | 77 | 1012.0 |
| 20260508024002 | 47 | 153 | 0.0 | 0.0 | 0.00 | 0.00 | 0.00 | 78 | 1011.9 |
| 20260508023502 | 47 | 154 | 0.0 | 0.0 | 0.00 | 0.00 | 0.00 | 73 | 1011.9 |
| 20260508023004 | 47 | 154 | 0.0 | 0.0 | 0.00 | 0.00 | 0.00 | 71 | 1012.0 |
| 20260508022503 | 47 | 153 | 0.0 | 0.0 | 0.00 | 0.00 | 0.00 | 69 | 1012.0 |
| 20260508022003 | 47 | 154 | 0.0 | 0.0 | 0.00 | 0.00 | 0.00 | 68 | 1011.9 |
| 20260508021515 | 47 | 154 | 0.0 | 0.0 | 0.00 | 0.00 | 0.00 | 69 | 1011.9 |
| 20260508021004 | 48 | 154 | 0.0 | 0.0 | 0.00 | 0.00 | 0.00 | 70 | 1011.9 |
| 20260508020503 | 48 | 154 | 0.0 | 0.0 | 0.00 | 0.00 | 0.00 | 70 | 1011.9 |
| 20260508020008 | 48 | 154 | 0.0 | 0.0 | 0.00 | 0.00 | 0.00 | 70 | 1011.9 |
| 20260508015502 | 47 | 153 | 0.0 | 0.0 | 0.00 | 0.00 | 0.00 | 70 | 1012.0 |
| 20260508015007 | 47 | 153 | 0.0 | 0.0 | 0.00 | 0.00 | 0.00 | 69 | 1012.0 |
| 20260508014513 | 47 | 154 | 0.0 | 0.0 | 0.00 | 0.00 | 0.00 | 69 | 1012.0 |
| 20260508014004 | 47 | 153 | 0.0 | 0.0 | 0.00 | 0.00 | 0.00 | 68 | 1012.0 |
| 20260508013502 | 48 | 154 | 0.0 | 0.0 | 0.00 | 0.00 | 0.00 | 64 | 1012.0 |
| 20260508013022 | 48 | 154 | 0.0 | 0.0 | 0.00 | 0.00 | 0.00 | 64 | 1011.9 |
| 20260508012506 | 48 | 154 | 0.0 | 0.0 | 0.00 | 0.00 | 0.00 | 66 | 1011.8 |
| 20260508012004 | 48 | 132 | 0.0 | 0.0 | 0.00 | 0.00 | 0.00 | 64 | 1011.8 |
| 20260508011508 | 48 | 252 | 0.0 | 0.0 | 0.00 | 0.00 | 0.00 | 63 | 1011.8 |
| 20260508011006 | 48 | 252 | 0.0 | 0.0 | 0.00 | 0.00 | 0.00 | 62 | 1011.8 |
| 20260508010503 | 48 | 252 | 0.0 | 0.0 | 0.00 | 0.00 | 0.00 | 60 | 1011.8 |
| 20260508010011 | 48 | 252 | 0.0 | 0.0 | 0.00 | 0.00 | 0.00 | 60 | 1011.8 |
| 20260508005505 | 48 | 252 | 0.0 | 0.0 | 0.00 | 0.00 | 0.00 | 59 | 1011.8 |
| 20260508005006 | 49 | 252 | 0.0 | 0.0 | 0.00 | 0.00 | 0.00 | 58 | 1011.8 |
| 20260508004509 | 50 | 252 | 0.0 | 0.0 | 0.00 | 0.00 | 0.00 | 58 | 1011.7 |
| 20260508004004 | 50 | 252 | 0.0 | 0.0 | 0.00 | 0.00 | 0.00 | 57 | 1011.7 |
| 20260508003511 | 51 | 252 | 0.0 | 1.0 | 0.00 | 0.00 | 0.00 | 56 | 1011.8 |
| 20260508003012 | 51 | 252 | 0.0 | 1.0 | 0.00 | 0.00 | 0.00 | 54 | 1011.7 |
| 20260508002504 | 52 | 252 | 0.0 | 1.0 | 0.00 | 0.00 | 0.00 | 52 | 1011.6 |
| 20260508002004 | 52 | 251 | 0.0 | 1.0 | 0.00 | 0.00 | 0.00 | 50 | 1011.6 |
| 20260508001517 | 53 | 273 | 0.0 | 0.0 | 0.00 | 0.00 | 0.00 | 49 | 1011.5 |
| 20260508001004 | 53 | 273 | 0.0 | 4.0 | 0.00 | 0.00 | 0.00 | 48 | 1011.5 |
| 20260508000504 | 54 | 273 | 0.0 | 4.0 | 0.00 | 0.00 | 0.00 | 46 | 1011.4 |
| 20260508000013 | 54 | 274 | 1.0 | 4.0 | 0.00 | 0.00 | 0.00 | 45 | 1011.4 |
| 20260507235503 | 54 | 231 | 0.0 | 3.0 | 0.00 | 0.00 | 0.00 | 44 | 1011.4 |
| 20260507235002 | 55 | 250 | 1.0 | 3.0 | 0.00 | 0.00 | 0.00 | 44 | 1011.3 |
| 20260507234504 | 55 | 276 | 0.0 | 4.0 | 0.00 | 0.00 | 0.00 | 43 | 1011.3 |
| 20260507234004 | 56 | 279 | 2.0 | 6.0 | 0.00 | 0.00 | 0.00 | 42 | 1011.3 |
| 20260507233504 | 56 | 313 | 2.0 | 7.0 | 0.00 | 0.00 | 0.00 | 42 | 1011.3 |
| 20260507233015 | 56 | 334 | 4.0 | 7.0 | 0.00 | 0.00 | 0.00 | 41 | 1011.3 |
| 20260507232504 | 57 | 319 | 2.0 | 4.0 | 0.00 | 0.00 | 0.00 | 41 | 1011.3 |
| 20260507232003 | 57 | 315 | 2.0 | 5.0 | 0.00 | 0.00 | 0.00 | 41 | 1011.3 |
| 20260507231513 | 57 | 296 | 3.0 | 5.0 | 0.00 | 0.00 | 0.00 | 41 | 1011.3 |
| 20260507231003 | 57 | 314 | 2.0 | 5.0 | 0.00 | 0.00 | 0.00 | 41 | 1011.3 |
| 20260507230507 | 57 | 328 | 3.0 | 5.0 | 0.00 | 0.00 | 0.00 | 41 | 1011.3 |
| 20260507230017 | 57 | 295 | 3.0 | 7.0 | 0.00 | 0.00 | 0.00 | 41 | 1011.4 |
| 20260507225504 | 57 | 273 | 2.0 | 8.0 | 0.00 | 0.00 | 0.00 | 41 | 1011.4 |
| 20260507225007 | 57 | 290 | 4.0 | 8.0 | 0.00 | 0.00 | 0.00 | 41 | 1011.4 |
| 20260507224517 | 58 | 302 | 2.0 | 10.0 | 0.00 | 0.00 | 0.00 | 41 | 1011.5 |
| 20260507224006 | 57 | 274 | 3.0 | 10.0 | 0.00 | 0.00 | 0.00 | 41 | 1011.5 |
| 20260507223504 | 57 | 272 | 5.0 | 9.0 | 0.00 | 0.00 | 0.00 | 41 | 1011.6 |
| 20260507223006 | 58 | 335 | 5.0 | 10.0 | 0.00 | 0.00 | 0.00 | 40 | 1011.6 |
| 20260507222504 | 58 | 300 | 5.0 | 13.0 | 0.00 | 0.00 | 0.00 | 42 | 1011.5 |
| 20260507222004 | 58 | 314 | 8.0 | 13.0 | 0.00 | 0.00 | 0.00 | 39 | 1011.5 |
| 20260507221517 | 58 | 307 | 5.0 | 10.0 | 0.00 | 0.00 | 0.00 | 39 | 1011.6 |
| 20260507221008 | 58 | 300 | 5.0 | 9.0 | 0.00 | 0.00 | 0.00 | 40 | 1011.6 |
| 20260507220506 | 58 | 275 | 5.0 | 10.0 | 0.00 | 0.00 | 0.00 | 41 | 1011.6 |
| 20260507220016 | 57 | 305 | 3.0 | 10.0 | 0.00 | 0.00 | 0.00 | 42 | 1011.6 |
| 20260507215504 | 56 | 319 | 5.0 | 11.0 | 0.00 | 0.00 | 0.00 | 42 | 1011.7 |
| 20260507215006 | 57 | 315 | 5.0 | 11.0 | 0.00 | 0.00 | 0.00 | 41 | 1011.6 |
| 20260507214525 | 57 | 279 | 5.0 | 11.0 | 0.00 | 0.00 | 0.00 | 42 | 1011.4 |
| 20260507214011 | 58 | 323 | 6.0 | 11.0 | 0.00 | 0.00 | 0.00 | 40 | 1011.5 |
| 20260507213513 | 58 | 249 | 8.0 | 12.0 | 0.00 | 0.00 | 0.00 | 41 | 1011.5 |
| 20260507213021 | 57 | 304 | 4.0 | 13.0 | 0.00 | 0.00 | 0.00 | 43 | 1011.4 |
| 20260507212507 | 57 | 292 | 6.0 | 13.0 | 0.00 | 0.00 | 0.00 | 42 | 1011.4 |
| 20260507212008 | 57 | 313 | 6.0 | 13.0 | 0.00 | 0.00 | 0.00 | 41 | 1011.4 |
| 20260507211522 | 58 | 326 | 5.0 | 13.0 | 0.00 | 0.00 | 0.00 | 43 | 1011.4 |
| 20260507211004 | 57 | 358 | 5.0 | 12.0 | 0.00 | 0.00 | 0.00 | 43 | 1011.3 |
| 20260507210504 | 56 | 299 | 6.0 | 12.0 | 0.00 | 0.00 | 0.00 | 42 | 1011.3 |
| 20260507210031 | 56 | 302 | 5.0 | 12.0 | 0.00 | 0.00 | 0.00 | 42 | 1011.4 |
| 20260507205505 | 57 | 304 | 6.0 | 14.0 | 0.00 | 0.00 | 0.00 | 40 | 1011.3 |
| 20260507205006 | 58 | 300 | 5.0 | 17.0 | 0.00 | 0.00 | 0.00 | 42 | 1011.3 |
| 20260507204513 | 57 | 307 | 7.0 | 17.0 | 0.00 | 0.00 | 0.00 | 39 | 1011.3 |
| 20260507204008 | 57 | 336 | 6.0 | 11.0 | 0.00 | 0.00 | 0.00 | 43 | 1011.2 |
| 20260507203506 | 57 | 294 | 5.0 | 12.0 | 0.00 | 0.00 | 0.00 | 41 | 1011.2 |
| 20260507203022 | 57 | 317 | 4.0 | 12.0 | 0.00 | 0.00 | 0.00 | 44 | 1011.1 |
| 20260507202507 | 57 | 295 | 4.0 | 11.0 | 0.00 | 0.00 | 0.00 | 43 | 1011.2 |
| 20260507202007 | 57 | 40 | 4.0 | 19.0 | 0.00 | 0.00 | 0.00 | 47 | 1011.1 |
| 20260507201522 | 56 | 348 | 8.0 | 19.0 | 0.00 | 0.00 | 0.00 | 44 | 1011.3 |
| 20260507201008 | 56 | 302 | 6.0 | 14.0 | 0.00 | 0.00 | 0.00 | 44 | 1011.4 |
| 20260507200508 | 57 | 301 | 8.0 | 14.0 | 0.00 | 0.00 | 0.00 | 44 | 1011.5 |
| 20260507200027 | 57 | 319 | 5.0 | 11.0 | 0.00 | 0.00 | 0.00 | 45 | 1011.3 |
| 20260507195508 | 57 | 303 | 5.0 | 13.0 | 0.00 | 0.00 | 0.00 | 48 | 1011.3 |
| 20260507195007 | 56 | 307 | 4.0 | 14.0 | 0.00 | 0.00 | 0.00 | 44 | 1011.3 |
| 20260507194513 | 56 | 25 | 5.0 | 14.0 | 0.00 | 0.00 | 0.00 | 45 | 1011.3 |
| 20260507194005 | 56 | 315 | 5.0 | 17.0 | 0.00 | 0.00 | 0.00 | 43 | 1011.4 |
| 20260507193506 | 57 | 335 | 8.0 | 17.0 | 0.00 | 0.00 | 0.00 | 44 | 1011.5 |
| 20260507193018 | 57 | 321 | 7.0 | 15.0 | 0.00 | 0.00 | 0.00 | 52 | 1011.5 |
| 20260507192507 | 56 | 321 | 5.0 | 13.0 | 0.00 | 0.00 | 0.00 | 47 | 1011.3 |
| 20260507192006 | 55 | 316 | 5.0 | 15.0 | 0.00 | 0.00 | 0.00 | 45 | 1011.4 |
| 20260507191522 | 57 | 317 | 8.0 | 15.0 | 0.00 | 0.00 | 0.00 | 46 | 1011.5 |
| 20260507191008 | 57 | 6 | 6.0 | 15.0 | 0.00 | 0.00 | 0.00 | 49 | 1011.6 |
| 20260507190507 | 57 | 321 | 7.0 | 14.0 | 0.00 | 0.00 | 0.00 | 48 | 1011.6 |
| 20260507190026 | 56 | 259 | 6.0 | 17.0 | 0.00 | 0.00 | 0.00 | 47 | 1011.6 |
| 20260507185506 | 56 | 302 | 8.0 | 17.0 | 0.00 | 0.00 | 0.00 | 50 | 1011.6 |
| 20260507185013 | 56 | 283 | 9.0 | 14.0 | 0.00 | 0.00 | 0.00 | 48 | 1011.7 |
| 20260507184525 | 56 | 314 | 5.0 | 16.0 | 0.00 | 0.00 | 0.00 | 49 | 1011.6 |
| 20260507184007 | 56 | 291 | 9.0 | 16.0 | 0.00 | 0.00 | 0.00 | 47 | 1011.6 |
| 20260507183511 | 56 | 278 | 7.0 | 13.0 | 0.00 | 0.00 | 0.00 | 46 | 1011.6 |
| 20260507183034 | 56 | 351 | 7.0 | 13.0 | 0.00 | 0.00 | 0.00 | 52 | 1011.7 |
| 20260507182507 | 55 | 279 | 5.0 | 14.0 | 0.00 | 0.00 | 0.00 | 51 | 1011.7 |
| 20260507182004 | 56 | 356 | 4.0 | 14.0 | 0.00 | 0.00 | 0.00 | 54 | 1011.7 |
| 20260507181518 | 56 | 297 | 8.0 | 14.0 | 0.00 | 0.00 | 0.00 | 53 | 1011.8 |
| 20260507181002 | 56 | 333 | 6.0 | 11.0 | 0.00 | 0.00 | 0.00 | 49 | 1011.7 |
| 20260507180502 | 55 | 320 | 5.0 | 15.0 | 0.00 | 0.00 | 0.00 | 49 | 1011.7 |
| 20260507180005 | 55 | 335 | 7.0 | 15.0 | 0.00 | 0.00 | 0.00 | 50 | 1011.7 |
| 20260507175501 | 55 | 302 | 4.0 | 15.0 | 0.00 | 0.00 | 0.00 | 52 | 1011.7 |
| 20260507175003 | 55 | 296 | 6.0 | 14.0 | 0.00 | 0.00 | 0.00 | 51 | 1011.6 |
| 20260507174510 | 55 | 307 | 5.0 | 14.0 | 0.00 | 0.00 | 0.00 | 50 | 1011.9 |
| 20260507174003 | 55 | 322 | 8.0 | 13.0 | 0.00 | 0.00 | 0.00 | 48 | 1011.8 |
| 20260507173503 | 55 | 309 | 7.0 | 14.0 | 0.00 | 0.00 | 0.00 | 46 | 1011.9 |
| 20260507173012 | 55 | 300 | 6.0 | 14.0 | 0.00 | 0.00 | 0.00 | 49 | 1011.8 |
| 20260507172504 | 55 | 10 | 5.0 | 12.0 | 0.00 | 0.00 | 0.00 | 50 | 1011.9 |
| 20260507172005 | 55 | 316 | 6.0 | 12.0 | 0.00 | 0.00 | 0.00 | 53 | 1012.0 |
| 20260507171514 | 55 | 308 | 5.0 | 11.0 | 0.00 | 0.00 | 0.00 | 53 | 1012.1 |
| 20260507171006 | 55 | 318 | 6.0 | 11.0 | 0.00 | 0.00 | 0.00 | 54 | 1012.2 |
| 20260507170505 | 55 | 285 | 5.0 | 10.0 | 0.00 | 0.00 | 0.00 | 54 | 1012.1 |
| 20260507170020 | 55 | 297 | 5.0 | 16.0 | 0.00 | 0.00 | 0.00 | 50 | 1012.4 |
| 20260507165506 | 55 | 288 | 7.0 | 16.0 | 0.00 | 0.00 | 0.00 | 55 | 1012.4 |
| 20260507165005 | 55 | 302 | 6.0 | 11.0 | 0.00 | 0.00 | 0.00 | 51 | 1012.4 |
| 20260507164503 | 54 | 307 | 6.0 | 11.0 | 0.00 | 0.00 | 0.00 | 52 | 1012.4 |
| 20260507164003 | 54 | 302 | 4.0 | 13.0 | 0.00 | 0.00 | 0.00 | 52 | 1012.4 |
| 20260507163502 | 54 | 321 | 3.0 | 13.0 | 0.00 | 0.00 | 0.00 | 50 | 1012.4 |
| 20260507163006 | 54 | 312 | 6.0 | 12.0 | 0.00 | 0.00 | 0.00 | 52 | 1012.5 |
| 20260507162503 | 54 | 284 | 4.0 | 12.0 | 0.00 | 0.00 | 0.00 | 52 | 1012.4 |
| 20260507162004 | 54 | 273 | 7.0 | 12.0 | 0.00 | 0.00 | 0.00 | 52 | 1012.4 |
| 20260507161511 | 53 | 269 | 6.0 | 15.0 | 0.00 | 0.00 | 0.00 | 48 | 1012.3 |
| 20260507161008 | 53 | 302 | 9.0 | 15.0 | 0.00 | 0.00 | 0.00 | 49 | 1012.3 |
| 20260507160506 | 54 | 305 | 5.0 | 12.0 | 0.00 | 0.00 | 0.00 | 53 | 1012.3 |
| 20260507160020 | 54 | 252 | 6.0 | 11.0 | 0.00 | 0.00 | 0.00 | 51 | 1012.2 |
| 20260507155506 | 53 | 268 | 6.0 | 11.0 | 0.00 | 0.00 | 0.00 | 52 | 1012.2 |
| 20260507155007 | 53 | 341 | 6.0 | 11.0 | 0.00 | 0.00 | 0.00 | 54 | 1012.2 |
| 20260507154529 | 53 | 314 | 6.0 | 11.0 | 0.00 | 0.00 | 0.00 | 52 | 1012.2 |
| 20260507154008 | 53 | 296 | 6.0 | 11.0 | 0.00 | 0.00 | 0.00 | 52 | 1012.1 |
| 20260507153505 | 53 | 309 | 3.0 | 12.0 | 0.00 | 0.00 | 0.00 | 52 | 1012.1 |
| 20260507153035 | 53 | 286 | 6.0 | 12.0 | 0.00 | 0.00 | 0.00 | 51 | 1012.2 |
| 20260507152503 | 52 | 266 | 5.0 | 12.0 | 0.00 | 0.00 | 0.00 | 53 | 1012.1 |
| 20260507152006 | 52 | 328 | 5.0 | 12.0 | 0.00 | 0.00 | 0.00 | 50 | 1012.0 |
| 20260507151510 | 53 | 302 | 6.0 | 11.0 | 0.00 | 0.00 | 0.00 | 51 | 1012.1 |
| 20260507151004 | 52 | 285 | 5.0 | 13.0 | 0.00 | 0.00 | 0.00 | 53 | 1012.0 |
| 20260507150504 | 52 | 325 | 4.0 | 13.0 | 0.00 | 0.00 | 0.00 | 55 | 1012.0 |